Wind_Speed
8 7 6 6 5 4 4 4 4 3 3 3 3 4 4 4 4 4 4 4 5 5 5 5 5 4 4 4 4 5 5 6 6 7 6 6 7 7 7 7 7 6 6
8 7 6 5 5 4 4 4 4 3 3 4 4 4 4 4 4 4 3 4 4 5 5 5 5 4 4 4 4 4 4 5 6 7 6 6 6 6 7 7 7 7 6
8 7 7 5 4 4 4 4 4 4 3 4 3 4 4 3 3 4 3 3 3 3 4 5 5 4 5 4 4 4 5 5 6 6 5 4 5 5 6 6 7 7 7
10 9 8 7 5 4 3 3 3 3 3 3 3 3 3 3 3 3 3 2 2 2 3 4 4 4 5 5 5 4 5 5 4 5 5 4 4 5 5 5 5 6 6
10 10 9 8 6 5 3 3 3 3 4 3 3 3 3 2 2 2 2 2 2 3 3 4 4 5 5 6 6 5 5 5 5 6 5 4 5 5 5 5 4 4 5
10 10 10 10 9 6 5 4 4 4 3 3 2 3 2 2 1 1 1 2 3 3 4 4 4 5 5 6 6 6 6 5 6 6 5 5 5 4 5 5 5 4 5
10 10 10 11 11 9 7 6 5 5 4 3 3 2 2 1 0 1 2 2 3 4 4 5 5 5 5 6 6 6 6 5 6 6 5 5 5 4 4 4 4 5 6
10 10 10 10 11 10 9 8 6 5 4 4 3 2 2 1 1 2 2 3 4 5 5 5 6 5 5 5 5 4 5 4 5 5 5 5 5 5 5 5 5 6 7
10 10 10 10 10 9 8 8 7 6 5 4 3 3 2 1 2 2 2 2 2 3 4 5 6 7 7 6 5 4 4 4 3 5 6 6 6 5 5 6 6 6 8
10 10 10 9 9 8 8 8 7 6 6 5 4 3 2 2 2 2 3 2 2 2 2 3 5 6 7 6 5 5 4 4 4 4 5 6 6 6 6 6 6 7 7
10 10 10 9 9 8 8 7 7 6 5 5 4 3 3 2 3 3 4 3 2 1 0 2 4 6 7 6 5 5 5 5 5 5 5 6 6 6 6 7 7 7 8
10 10 9 9 8 8 7 7 7 6 6 5 5 5 4 3 3 4 3 3 1 0 1 2 4 5 6 6 6 6 6 6 6 5 5 6 6 7 7 8 7 8 8
10 9 9 9 9 8 8 7 7 6 7 6 6 5 5 4 4 3 3 2 2 1 1 3 4 5 5 5 5 5 6 6 6 5 5 5 6 7 7 8 8 8 9
10 9 9 9 9 8 7 7 6 6 7 6 6 6 5 5 4 4 4 3 2 2 1 2 4 5 5 5 5 5 6 6 6 6 6 6 6 7 6 7 8 9 9
9 9 9 9 10 9 7 6 6 6 6 6 6 6 6 5 5 5 5 3 3 2 1 1 3 4 5 5 6 6 6 6 6 7 7 7 6 7 6 6 8 9 9
9 9 9 9 9 8 7 6 6 7 6 6 6 6 6 5 5 5 4 4 4 3 2 2 2 3 4 5 6 6 6 7 7 7 7 7 7 7 7 6 7 8 9
9 9 8 9 9 8 8 7 6 6 7 6 6 6 6 5 6 6 5 4 4 4 3 3 3 3 4 4 5 5 6 7 7 7 7 8 8 8 8 8 8 8 9
8 8 8 9 9 9 8 8 7 6 6 6 6 6 6 5 6 6 6 5 5 5 5 4 4 4 4 4 5 5 6 8 8 8 8 8 9 9 9 8 8 10 10
8 8 8 8 8 8 8 7 7 7 7 6 6 6 6 5 6 6 7 7 6 6 6 5 5 5 5 6 6 7 8 8 9 9 10 10 10 10 10 10 10 11 12
8 8 8 8 8 8 8 7 7 7 7 6 6 6 7 7 7 6 7 7 7 7 6 6 6 6 6 7 7 8 8 9 9 10 10 10 10 11 11 12 12 12 13
8 8 8 8 8 9 8 7 8 7 7 7 7 7 7 7 7 7 7 8 8 8 8 8 7 7 8 8 8 9 9 10 10 10 10 11 11 11 12 13 13 13 13
8 8 7 7 8 8 8 7 7 7 7 7 8 8 7 7 7 8 8 9 9 9 9 9 9 9 9 9 9 10 10 11 12 12 12 12 13 13 13 13 14 14 14
8 8 7 7 7 7 7 7 8 8 8 8 9 9 9 8 8 8 9 10 10 11 10 10 10 10 10 10 10 11 11 12 13 14 14 14 14 14 14 14 15 15 15
8 8 8 7 8 8 8 8 8 8 9 9 10 10 10 10 9 9 10 11 12 11 11 11 11 11 12 12 12 12 12 12 13 14 15 17 17 16 16 16 16 17 17
9 9 9 9 8 8 8 9 9 9 10 10 11 11 11 11 11 11 12 12 12 12 13 13 13 13 13 13 13 14 14 14 15 15 16 17 18 18 18 18 18 18 18
9 9 10 10 9 9 9 10 10 10 11 11 12 12 11 12 12 13 13 14 14 14 14 14 14 14 14 14 15 15 16 16 16 16 16 17 18 19 19 20 19 19 19
Wind_Direction
40 43 50 53 56 76 91 96 98 96 91 95 117 132 152 165 166 173 179 194 197 202 200 194 200 206 209 198 193 194 199 203 205 213 217 217 218 222 222 212 203 200 205
44 46 53 59 64 78 89 91 100 96 93 102 112 121 132 144 162 172 171 183 190 199 210 208 206 210 217 216 209 205 201 201 211 211 209 215 221 225 220 214 209 207 214
48 47 54 59 64 85 96 94 93 93 93 106 116 123 127 129 144 166 174 181 193 199 208 210 212 218 210 205 205 208 199 205 205 206 207 214 212 214 214 214 215 215 215
52 52 54 54 61 82 101 97 88 88 96 106 112 125 134 141 148 157 168 179 199 215 214 215 217 217 208 204 208 204 198 197 202 205 206 204 198 201 211 211 215 212 214
53 52 52 53 56 72 90 103 94 90 96 102 110 119 130 143 160 165 178 201 224 234 231 226 230 227 218 216 213 201 199 202 205 205 202 202 195 197 203 205 209 207 209
54 53 52 53 53 63 89 97 89 88 92 90 108 114 120 137 164 216 238 247 247 245 234 229 232 231 227 224 212 209 210 207 212 209 205 201 198 203 204 204 209 207 209
54 55 55 57 59 70 89 97 94 84 81 77 86 100 93 86 274 252 265 261 257 257 250 242 234 227 222 215 215 221 222 223 227 212 208 205 203 200 200 206 213 214 214
54 56 57 62 64 73 79 84 91 81 71 70 75 75 67 44 356 319 314 293 282 272 254 242 234 219 218 215 217 222 226 221 222 210 217 218 219 221 221 219 218 221 218
54 55 59 63 65 69 68 72 74 74 65 58 57 49 35 6 338 333 336 315 290 283 258 244 234 220 217 216 216 217 220 216 220 223 227 222 223 224 229 227 220 220 218
55 55 55 57 60 65 67 65 60 59 56 53 46 33 20 1 343 347 352 328 306 298 268 237 218 212 209 211 212 216 217 220 227 236 233 225 226 226 229 227 225 221 218
52 54 54 53 53 58 58 54 54 48 43 39 38 33 29 13 1 1 4 0 354 353 257 209 207 209 206 207 213 220 222 225 233 238 234 226 228 231 228 227 227 221 215
45 48 51 49 48 47 47 47 45 48 42 31 33 33 28 23 25 24 19 27 29 311 207 196 199 202 202 211 216 227 233 227 231 235 232 228 227 228 228 225 228 222 217
40 42 42 40 38 38 41 43 44 45 39 34 32 27 26 26 31 22 17 26 60 107 164 192 198 202 208 214 221 231 234 232 234 236 234 233 235 233 228 228 226 223 220
40 38 37 37 36 36 40 44 44 40 36 30 28 24 21 18 27 27 17 25 47 70 165 198 216 218 221 225 231 235 239 239 238 239 241 241 240 235 235 233 231 224 220
36 36 37 37 36 35 34 37 37 34 27 28 23 24 29 28 29 29 30 31 35 31 33 237 233 229 229 237 242 244 247 242 241 242 242 242 243 239 242 242 234 232 229
33 33 33 34 32 32 34 35 32 28 22 18 15 19 27 28 25 24 29 31 24 10 356 336 280 253 242 245 249 249 247 250 246 247 246 241 239 243 241 239 239 240 240
31 30 29 30 27 27 29 30 24 23 17 11 12 14 12 10 4 4 6 5 359 354 342 319 298 281 260 258 256 256 253 254 255 247 245 245 242 246 249 250 243 243 245
26 27 26 26 25 22 18 18 16 10 4 358 360 2 0 358 354 351 344 340 338 335 327 312 300 289 277 268 264 261 260 260 258 256 253 252 248 248 250 250 248 247 247
22 22 23 24 22 19 14 11 7 2 356 349 347 345 347 347 345 345 339 333 329 322 318 311 306 296 289 282 275 271 266 262 259 256 257 255 254 253 252 252 253 254 254
19 17 16 16 17 14 12 11 4 358 351 344 341 341 339 336 341 338 336 334 325 313 304 299 298 295 292 286 282 278 269 262 262 260 258 260 262 262 260 258 257 258 257
11 9 9 11 12 8 6 4 3 358 351 345 339 341 342 344 344 342 338 333 327 316 308 308 298 292 292 290 285 282 277 270 266 266 264 264 266 268 265 262 261 262 262
5 2 1 1 2 0 358 354 352 353 348 346 344 340 335 332 328 330 330 330 326 319 313 311 302 299 292 288 286 284 280 274 269 271 268 268 267 268 269 266 264 264 265
354 352 349 349 352 353 351 348 346 344 341 339 338 335 329 327 325 324 325 321 319 318 313 311 305 301 298 296 295 293 285 278 273 274 273 271 269 267 267 267 265 264 266
344 342 342 343 343 344 344 340 339 337 334 331 330 330 326 321 319 319 318 315 312 309 307 306 304 301 297 295 296 296 292 286 280 273 271 270 270 269 267 266 265 264 263
338 337 336 335 335 336 337 336 335 333 329 326 326 324 317 312 311 312 311 311 308 304 301 299 298 297 297 294 292 292 291 287 285 279 274 272 271 269 268 268 267 266 264
329 330 328 328 329 329 330 329 331 330 326 323 322 318 312 308 306 307 309 310 309 303 300 299 298 295 294 293 292 291 290 288 287 285 279 277 275 272 268 268 268 268 267
Height
5877 5876 5875 5875 5875 5875 5875 5875 5875 5875 5875 5876 5876 5876 5877 5878 5879 5879 5880 5880 5881 5881 5882 5882 5883 5883 5883 5883 5884 5884 5885 5886 5887 5887 5888 5888 5889 5889 5890 5890 5891 5891 5892
5878 5876 5876 5875 5875 5875 5875 5875 5875 5876 5876 5876 5876 5877 5877 5878 5879 5880 5880 5880 5881 5881 5882 5882 5883 5883 5883 5883 5884 5884 5885 5886 5886 5887 5887 5888 5888 5889 5889 5890 5890 5891 5891
5878 5877 5876 5876 5875 5875 5875 5875 5876 5876 5876 5877 5877 5877 5878 5879 5879 5880 5881 5881 5881 5881 5881 5882 5882 5883 5883 5883 5883 5884 5884 5885 5885 5886 5887 5887 5888 5888 5888 5889 5889 5890 5891
5879 5878 5877 5876 5875 5875 5875 5876 5876 5877 5877 5877 5877 5878 5878 5879 5880 5880 5881 5881 5881 5881 5881 5881 5882 5882 5883 5883 5883 5883 5884 5884 5885 5886 5886 5887 5887 5888 5888 5888 5889 5889 5890
5880 5879 5878 5876 5875 5874 5875 5876 5877 5877 5877 5878 5878 5879 5879 5879 5880 5880 5880 5880 5880 5881 5881 5881 5881 5881 5882 5882 5883 5883 5884 5884 5885 5885 5886 5886 5887 5887 5887 5888 5888 5888 5889
5881 5880 5879 5877 5875 5873 5874 5876 5877 5877 5878 5878 5878 5879 5879 5879 5880 5880 5880 5879 5879 5879 5879 5879 5880 5880 5880 5881 5882 5882 5883 5884 5884 5885 5885 5886 5886 5887 5887 5887 5887 5888 5888
5882 5881 5880 5878 5874 5870 5872 5875 5877 5878 5879 5879 5879 5879 5879 5879 5879 5879 5879 5878 5878 5877 5877 5878 5878 5878 5879 5880 5881 5882 5882 5883 5883 5884 5885 5885 5886 5886 5886 5887 5887 5887 5888
5883 5882 5881 5880 5878 5876 5876 5877 5879 5879 5880 5880 5880 5879 5879 5879 5879 5878 5878 5877 5876 5875 5874 5875 5875 5876 5878 5879 5881 5881 5882 5882 5882 5883 5884 5884 5885 5885 5886 5886 5886 5886 5887
5884 5884 5883 5882 5881 5880 5880 5880 5880 5880 5881 5880 5880 5880 5879 5879 5879 5878 5877 5875 5873 5872 5872 5872 5873 5874 5876 5878 5880 5881 5881 5882 5882 5883 5883 5883 5884 5884 5885 5885 5885 5885 5886
5886 5885 5884 5883 5883 5882 5882 5882 5881 5881 5881 5881 5880 5880 5879 5879 5878 5877 5876 5874 5872 5870 5870 5870 5871 5873 5875 5878 5879 5880 5881 5881 5881 5882 5882 5882 5883 5883 5883 5884 5884 5884 5885
5887 5886 5886 5885 5884 5883 5883 5882 5882 5882 5881 5881 5880 5880 5879 5878 5878 5877 5875 5873 5871 5870 5870 5870 5870 5872 5875 5877 5878 5879 5880 5880 5881 5881 5881 5881 5881 5882 5882 5882 5883 5883 5883
5888 5888 5887 5886 5885 5884 5884 5883 5883 5882 5882 5881 5880 5879 5879 5878 5877 5876 5875 5873 5871 5870 5870 5870 5871 5873 5875 5876 5877 5878 5878 5879 5880 5880 5880 5880 5880 5880 5881 5881 5881 5881 5881
5889 5888 5888 5887 5886 5885 5884 5884 5883 5883 5882 5881 5881 5880 5879 5878 5877 5877 5875 5874 5872 5871 5870 5871 5872 5873 5875 5875 5876 5877 5877 5878 5878 5878 5878 5878 5878 5879 5879 5879 5879 5879 5880
5890 5890 5889 5888 5887 5886 5885 5885 5884 5883 5883 5882 5881 5880 5879 5878 5877 5876 5875 5874 5873 5872 5871 5872 5873 5873 5874 5875 5875 5876 5876 5877 5877 5877 5877 5877 5877 5877 5877 5877 5877 5878 5878
5891 5890 5889 5888 5887 5887 5886 5885 5884 5884 5883 5882 5881 5880 5879 5878 5877 5876 5875 5874 5874 5873 5872 5872 5873 5873 5873 5874 5874 5874 5875 5875 5875 5875 5875 5875 5875 5875 5875 5875 5875 5876 5876
5892 5891 5890 5889 5888 5887 5886 5885 5885 5884 5883 5882 5881 5880 5879 5878 5878 5877 5876 5875 5874 5873 5873 5872 5872 5872 5872 5873 5873 5873 5873 5873 5873 5874 5874 5873 5874 5874 5873 5873 5873 5873 5874
5893 5892 5891 5889 5888 5887 5886 5885 5884 5884 5883 5882 5881 5880 5879 5878 5877 5877 5876 5874 5874 5873 5872 5872 5872 5872 5871 5871 5871 5871 5871 5871 5871 5872 5872 5871 5871 5872 5872 5871 5871 5871 5871
5893 5892 5891 5890 5888 5887 5886 5885 5884 5883 5882 5882 5881 5880 5879 5878 5877 5876 5875 5874 5873 5872 5872 5871 5871 5870 5870 5870 5870 5869 5869 5869 5870 5870 5870 5870 5870 5869 5869 5869 5869 5869 5869
5893 5892 5891 5890 5888 5887 5886 5885 5884 5883 5882 5881 5880 5879 5878 5877 5876 5875 5874 5873 5872 5871 5870 5870 5869 5869 5868 5868 5868 5868 5867 5867 5867 5867 5867 5867 5867 5867 5867 5867 5866 5866 5866
5893 5892 5891 5890 5888 5887 5886 5885 5884 5882 5881 5880 5879 5878 5877 5876 5874 5873 5872 5871 5870 5869 5869 5868 5867 5867 5866 5866 5866 5866 5865 5865 5864 5864 5864 5864 5864 5863 5863 5863 5863 5863 5863
5893 5892 5891 5889 5888 5887 5885 5884 5883 5882 5881 5879 5878 5877 5876 5875 5873 5872 5871 5870 5868 5867 5867 5866 5865 5864 5864 5863 5863 5862 5862 5862 5862 5861 5861 5861 5861 5860 5859 5859 5859 5859 5859
5892 5891 5890 5889 5888 5886 5885 5883 5882 5881 5880 5878 5877 5876 5874 5873 5872 5871 5869 5868 5867 5865 5864 5863 5862 5861 5861 5860 5860 5859 5859 5859 5858 5858 5858 5857 5857 5856 5856 5855 5855 5855 5855
5892 5890 5889 5888 5887 5885 5884 5882 5881 5880 5878 5877 5876 5874 5873 5871 5870 5868 5867 5866 5864 5863 5861 5860 5859 5858 5858 5857 5856 5856 5855 5855 5854 5854 5853 5853 5852 5852 5852 5851 5851 5851 5851
5891 5889 5888 5887 5885 5884 5883 5881 5880 5878 5877 5875 5874 5872 5871 5869 5868 5866 5864 5863 5861 5860 5858 5857 5856 5855 5854 5853 5852 5852 5851 5850 5850 5850 5849 5848 5848 5847 5847 5846 5846 5846 5845
5889 5888 5887 5885 5884 5882 5881 5879 5878 5876 5875 5873 5872 5870 5868 5867 5865 5863 5861 5859 5858 5856 5855 5853 5852 5851 5850 5849 5848 5847 5846 5845 5845 5845 5844 5844 5843 5842 5842 5841 5840 5840 5839
5888 5887 5885 5884 5882 5881 5879 5877 5876 5874 5872 5871 5869 5867 5865 5863 5862 5860 5858 5856 5854 5852 5851 5850 5848 5847 5845 5844 5843 5842 5841 5840 5840 5839 5839 5838 5837 5836 5836 5835 5834 5834 5833